Flag for Russia Weather past 2 weeks in Krasnodar, Russia

Now
41 °F

Passing clouds.


Feels Like: 39 °F
Forecast: 42 / 52 °F
Wind: 3 mph from South

Location: Krasnodar Airport

Current Time: Jan 30, 2015 at 12:30:56 AM

Latest Report: Jan 30, 2015 at 12:00 AM


Visibility: N/A

Pressure: 29.86 "Hg

Humidity: 93%

Dew point: 39 °F

Location of KrasnodarLocation

Historic Weather in Krasnodar — Graph

°F

Krasnodar temperature yesterday

Maximum temperature yesterday: 46 °F (at 1:30 PM)
Minimum temperature yesterday: 37 °F (at 12:30 AM)
Average temperature yesterday: 41 °F

Past Weeks' High & Low Weather Summary

 TemperatureHumidityPressure
High52 °F (Jan 21, 2:00 PM)100% (Jan 15, 1:30 AM)30.42 "Hg (Jan 15, 1:30 AM)
Low19 °F (Jan 15, 7:00 AM)65% (Jan 25, 11:00 AM)29.80 "Hg (Jan 28, 9:30 PM)
Average38 °F87%30.14 "Hg
* Reported Jan 14 11:00 PM — Jan 29 11:00 PM, Krasnodar, Weather by CustomWeather, © 2014

Note: Actual official high and low records may vary slightly from our data, if they occured in-between our weather recording intervals... More about our weather records

Advertising

Krasnodar weather history for previous 24 hours

 ConditionsComfort  
Time TempWeatherWind HumidityBarometerVisibility
11:00 PM
Jan 29
41 °FPassing clouds.6 mph93%29.86 "HgN/A
10:30 PM43 °FPassing clouds.8 mph93%29.86 "HgN/A
10:00 PM45 °FPassing clouds.8 mph87%29.86 "HgN/A
9:30 PM45 °FPartly cloudy.13 mph87%29.86 "HgN/A
9:00 PM45 °FPartly cloudy.10 mph87%29.86 "HgN/A
8:30 PM45 °FPartly cloudy.10 mph87%29.86 "HgN/A
8:00 PM45 °FPartly cloudy.10 mph93%29.86 "HgN/A
7:30 PM45 °FPartly cloudy.13 mph87%29.86 "HgN/A
7:00 PM45 °FPassing clouds.13 mph93%29.83 "HgN/A
6:30 PM45 °FPassing clouds.8 mph87%29.83 "HgN/A
6:00 PM45 °FPartly sunny.13 mph93%29.83 "HgN/A
5:30 PM45 °FSprinkles. Broken clouds.8 mph93%29.83 "HgN/A
5:00 PM46 °FBroken clouds.10 mph87%29.83 "HgN/A
4:30 PM46 °FPartly sunny.10 mph87%29.80 "HgN/A
4:00 PM46 °FPartly sunny.10 mph87%29.80 "HgN/A
3:30 PM46 °FPartly sunny.10 mph87%29.80 "HgN/A
3:00 PM46 °FPartly sunny.13 mph87%29.80 "HgN/A
2:30 PM46 °FPartly sunny.10 mph87%29.80 "HgN/A
2:00 PM46 °FPartly sunny.13 mph87%29.80 "HgN/A
1:30 PM46 °FPartly sunny.13 mph87%29.80 "HgN/A
1:00 PM45 °FPartly sunny.10 mph93%29.80 "HgN/A
12:30 PM43 °FBroken clouds.8 mph93%29.83 "HgN/A
12:00 PM43 °FBroken clouds.8 mph93%29.83 "HgN/A
11:30 AM43 °FSprinkles. Broken clouds.3 mph93%29.83 "Hg5 mi
11:00 AM41 °FSprinkles. Broken clouds.6 mph93%29.83 "Hg3 mi
10:30 AM39 °FSprinkles. Broken clouds.3 mph100%29.83 "Hg4 mi
10:00 AM39 °FBroken clouds.6 mph93%29.83 "Hg4 mi
9:30 AM39 °FBroken clouds.3 mph93%29.83 "Hg4 mi
9:00 AM37 °FBroken clouds.3 mph100%29.83 "Hg4 mi
8:30 AM37 °FFog.6 mph93%29.80 "Hg3 mi
8:00 AM37 °FPartly cloudy.8 mph93%29.80 "Hg4 mi
7:30 AM37 °FPartly cloudy.6 mph93%29.80 "Hg4 mi
7:00 AM37 °FPartly cloudy.6 mph93%29.80 "Hg4 mi
6:30 AM37 °FPartly cloudy.6 mph93%29.80 "Hg4 mi
6:00 AM37 °FPartly cloudy.6 mph93%29.80 "Hg4 mi
5:30 AM37 °FPartly cloudy.6 mph93%29.80 "Hg5 mi
5:00 AM37 °FPartly cloudy.8 mph93%29.80 "Hg5 mi
4:30 AM37 °FPartly cloudy.8 mph93%29.80 "Hg5 mi
4:00 AM37 °FPartly cloudy.8 mph93%29.80 "Hg5 mi
3:30 AM37 °FPartly cloudy.10 mph93%29.80 "Hg6 mi
3:00 AM37 °FPartly cloudy.8 mph93%29.80 "Hg5 mi
2:30 AM37 °FPartly cloudy.10 mph93%29.80 "HgN/A
2:00 AM37 °FSprinkles. Mostly cloudy.8 mph93%29.80 "Hg6 mi
1:30 AM37 °FSprinkles. Mostly cloudy.10 mph93%29.80 "HgN/A
1:00 AM37 °FSprinkles. Mostly cloudy.8 mph93%29.80 "Hg4 mi
12:30 AM37 °FSprinkles. Mostly cloudy.10 mph93%29.80 "Hg5 mi
12:00 AM39 °FSprinkles. Mostly cloudy.10 mph87%29.83 "Hg3 mi
Weather by CustomWeather, © 2014

See weather overviewHow to use our weather pages